Weather History for Evanston, WY

Change the Weather History Date:

Wednesday, March 13, 2013

  Actual Average Record
Temperature  
Mean Temperature 40 °F 30 °F  
Max Temperature 51 °F 39 °F 55 °F (2003)
Min Temperature 29 °F 21 °F 9 °F (2006)
Degree Days  
Heating Degree Days 25 35  
Month to date heating degree days 437 481  
Since 1 July heating degree days 6032 6489  
Cooling Degree Days 0 0  
Month to date cooling degree days 0 0  
Year to date cooling degree days 0 0  
Moisture  
Dew Point 26 °F    
Average Humidity 59    
Maximum Humidity 78    
Minimum Humidity 39    
Precipitation  
Precipitation 0.00 in 0.02 in 0.06 in (2002)
Month to date precipitation 0.15 0.27  
Year to date precipitation 0.62 1.42  
Sea Level Pressure  
Sea Level Pressure 30.31 in    
Wind  
Wind Speed 9 mph (SSW)    
Max Wind Speed 21 mph    
Max Gust Speed 23 mph    
Visibility 10 miles    
Events      
T = Trace of Precipitation, MM = Missing Value Source: NWS Daily Summary

Daily Weather History Graph

Daily Weather History Graph

Search for Another Location

Airport:

Trip Planner

Search our weather history database for the weather conditions in past years. The results will help you decide how hot, cold, wet, or windy it might be!

Date:

Astronomy

Mar. 13, 2013 Rise Set
Actual Time 7:38 AM MDT 7:28 PM MDT
Civil Twilight 7:11 AM MDT 7:56 PM MDT
Nautical Twilight 6:39 AM MDT 8:28 PM MDT
Astronomical Twilight 6:06 AM MDT 9:01 PM MDT
Moon 8:18 AM MDT (3/13) 9:51 PM MDT (3/13)
Length of Visible Light 12h 45m
Length of Day
11h 50m
Waxing Crescent, 4% of the Moon is Illuminated
Mar 13
Waxing Crescent
Mar 19
First Quarter
Mar 27
Full
Apr 2
Last Quarter
Apr 10
New

Hourly Weather History & Observations

Time (MDT) Temp. Windchill Dew Point Humidity Pressure Visibility Wind Dir Wind Speed Gust Speed Precip Events Conditions
1:53 AM 34.0 °F 28.8 °F 25.0 °F 70% 30.29 in 10.0 mi South 5.8 mph - N/A   Clear
2:53 AM 32.0 °F 25.6 °F 25.0 °F 75% 30.30 in 10.0 mi SW 6.9 mph - N/A   Clear
3:53 AM 32.0 °F 25.6 °F 25.0 °F 75% 30.30 in 10.0 mi South 6.9 mph - N/A   Clear
4:53 AM 30.9 °F 22.8 °F 24.1 °F 76% 30.29 in 10.0 mi South 9.2 mph - N/A   Clear
5:53 AM 30.9 °F 24.3 °F 24.1 °F 76% 30.31 in 10.0 mi South 6.9 mph - N/A   Clear
6:53 AM 30.0 °F 22.4 °F 23.0 °F 75% 30.34 in 10.0 mi SSW 8.1 mph - N/A   Clear
7:53 AM 30.0 °F 22.4 °F 23.0 °F 75% 30.36 in 10.0 mi South 8.1 mph - N/A   Clear
8:53 AM 32.0 °F 25.6 °F 25.0 °F 75% 30.38 in 10.0 mi South 6.9 mph - N/A   Clear
9:53 AM 37.0 °F 29.3 °F 27.0 °F 67% 30.35 in 10.0 mi SSW 11.5 mph - N/A   Clear
10:53 AM 41.0 °F 33.5 °F 28.0 °F 60% 30.36 in 10.0 mi SW 13.8 mph - N/A   Clear
11:53 AM 45.0 °F 38.2 °F 28.9 °F 53% 30.34 in 10.0 mi SSW 15.0 mph - N/A   Clear
12:53 PM 48.0 °F - 28.9 °F 48% 30.32 in 10.0 mi SW 15.0 mph - N/A   Clear
1:53 PM 48.0 °F - 27.0 °F 44% 30.30 in 10.0 mi WSW 15.0 mph - N/A   Clear
2:53 PM 50.0 °F - 26.1 °F 39% 30.30 in 10.0 mi SW 9.2 mph - N/A   Clear
3:53 PM 48.9 °F - 27.0 °F 43% 30.29 in 10.0 mi WSW 6.9 mph - N/A   Clear
4:53 PM 48.9 °F - 27.0 °F 43% 30.28 in 10.0 mi West 8.1 mph - N/A   Clear
5:53 PM 48.0 °F - 27.0 °F 44% 30.28 in 10.0 mi West 4.6 mph - N/A   Clear
6:53 PM 46.0 °F 41.4 °F 26.1 °F 46% 30.30 in 10.0 mi West 9.2 mph - N/A   Clear
7:53 PM 44.1 °F 39.0 °F 25.0 °F 47% 30.32 in 10.0 mi West 9.2 mph - N/A   Clear
8:53 PM 44.1 °F 40.8 °F 25.0 °F 47% 30.32 in 10.0 mi SW 5.8 mph - N/A   Clear
9:53 PM 45.0 °F 43.5 °F 24.1 °F 44% 30.30 in 10.0 mi SSE 3.5 mph - N/A   Clear
10:53 PM 43.0 °F 40.3 °F 25.0 °F 49% 30.29 in 10.0 mi SSE 4.6 mph - N/A   Clear
11:53 PM 39.9 °F 35.1 °F 24.1 °F 53% 30.27 in 10.0 mi South 6.9 mph - N/A   Clear